Wind_Speed
6 6 5 4 4 4 4 5 5 6 6 7 8 8 9 9 10 10 10 10 10 10 10 9 9 9 9 8 8 8 8 9 8 8 8 8 8 8 8 8 8 8 9
6 6 5 5 5 4 5 5 5 7 7 7 8 9 9 9 10 10 10 10 11 10 10 10 10 10 10 10 10 10 10 10 10 10 10 10 10 10 10 10 9 9 10
7 6 6 6 6 5 6 7 6 7 7 8 8 9 9 9 9 10 10 10 11 12 12 12 12 12 12 12 12 12 11 11 11 11 12 12 12 12 11 11 11 11 11
7 7 7 7 7 6 7 7 7 7 6 7 7 7 7 9 9 10 11 11 12 12 13 13 13 13 13 13 13 13 13 13 13 13 13 13 13 14 13 12 12 12 12
7 7 8 8 8 7 8 9 8 7 6 7 7 8 7 8 9 10 11 12 13 14 14 15 15 14 15 14 14 14 14 14 15 15 15 15 15 15 15 14 14 14 14
8 8 9 9 9 9 10 10 9 8 7 7 7 8 8 8 9 10 11 12 13 14 15 15 16 16 16 16 16 16 16 16 15 15 16 16 15 16 16 16 16 16 16
8 9 9 9 9 10 10 11 10 8 8 8 8 8 8 9 9 10 11 12 13 14 15 15 15 16 17 17 17 17 17 18 17 16 16 17 17 16 17 17 17 17 17
9 9 9 10 10 10 10 10 10 8 9 8 8 8 8 8 8 10 11 12 13 13 14 15 16 17 17 18 18 18 18 19 19 18 18 18 18 18 18 18 18 18 18
9 9 9 10 10 10 10 10 10 8 8 8 8 8 9 9 10 10 11 13 14 14 15 16 16 18 18 18 19 19 19 20 21 20 20 19 19 20 20 19 19 20 20
9 10 10 11 11 10 10 10 11 10 10 11 10 10 10 11 12 11 12 13 14 15 16 16 16 17 19 19 19 20 20 20 21 21 21 21 21 21 21 21 21 20 20
10 11 11 12 12 12 12 12 12 12 12 12 12 13 13 12 13 12 13 14 15 16 16 16 17 18 18 19 20 21 21 21 21 21 22 22 22 22 22 22 22 22 22
11 12 12 13 13 13 13 13 13 14 14 14 14 15 15 15 15 15 16 16 16 17 17 18 18 19 20 21 22 22 23 23 23 23 23 23 23 23 23 23 23 23 23
12 13 14 14 14 15 15 14 14 15 15 16 16 16 16 17 17 17 17 17 17 18 19 19 19 20 22 22 23 24 24 24 24 25 24 24 24 24 24 25 25 24 24
14 15 15 16 16 16 16 16 16 16 17 17 17 17 18 18 19 19 19 19 19 20 21 22 23 23 23 24 25 25 26 26 26 26 25 25 25 25 25 26 26 26 26
16 16 17 17 17 17 17 17 18 17 17 18 19 19 19 20 20 21 21 21 21 21 22 23 23 23 23 24 25 25 26 27 27 27 27 27 27 27 27 27 28 29 29
18 18 18 18 19 19 19 19 20 20 20 20 21 21 21 21 22 22 22 22 22 23 22 23 24 24 24 24 25 26 26 27 28 28 28 29 30 29 29 29 29 29 30
19 19 19 19 20 20 21 21 21 22 22 22 22 23 23 23 23 23 23 23 24 24 24 23 24 25 25 26 26 27 28 28 28 29 30 31 31 32 31 31 31 30 30
21 21 21 21 21 21 22 23 23 23 24 24 24 24 24 24 24 24 24 25 25 25 25 25 25 25 25 26 27 27 28 28 28 29 30 30 31 32 32 31 32 32 31
22 22 22 22 23 23 24 24 24 25 25 26 26 26 26 26 26 26 26 26 26 26 26 26 26 25 25 26 27 28 29 29 29 30 30 31 31 31 32 32 32 32 33
23 23 23 24 24 25 25 25 26 26 26 27 27 27 27 27 27 27 27 27 27 27 27 27 27 26 26 27 28 28 28 30 31 31 32 32 32 32 32 32 33 34 34
24 24 25 25 26 27 27 27 27 27 27 28 28 28 27 27 27 28 28 27 27 27 27 28 27 28 28 29 28 29 30 31 32 32 32 32 32 33 33 33 34 34 35
25 26 26 27 27 27 28 28 28 28 29 29 29 29 30 30 29 28 28 28 27 27 27 27 27 28 29 30 29 29 29 30 31 32 32 33 33 34 34 34 34 34 34
27 27 28 28 28 28 29 29 29 30 30 30 30 31 31 31 30 29 28 28 28 29 29 29 29 30 30 30 30 30 30 31 31 31 31 32 33 34 34 34 34 33 33
29 29 29 29 30 30 30 30 30 31 30 30 31 31 31 30 30 30 29 29 29 30 30 29 30 30 30 31 31 31 31 31 31 31 32 31 32 33 33 33 34 33 33
31 31 30 30 31 30 30 30 31 31 31 31 31 31 31 30 30 30 30 30 30 31 31 31 31 31 31 32 32 32 32 32 31 32 32 33 32 32 32 33 33 33 33
32 31 31 30 30 30 30 31 31 31 31 31 31 31 31 31 32 32 32 32 32 32 32 33 33 33 32 32 32 32 32 31 31 31 31 32 32 32 31 32 32 33 33
Wind_Direction
24 24 14 358 344 333 328 312 305 295 279 268 262 264 258 253 248 243 241 246 251 254 251 246 250 252 251 250 250 249 253 254 253 255 260 263 265 270 269 271 265 256 253
16 13 10 4 356 345 338 327 303 293 283 276 273 272 263 255 252 250 248 248 249 253 253 250 255 254 255 256 254 252 256 256 254 256 261 264 267 267 268 268 265 261 258
12 9 3 359 359 348 339 330 314 296 290 285 281 276 267 262 257 255 253 252 251 252 253 252 254 257 257 256 255 257 258 260 258 259 261 263 266 266 265 263 262 260 259
355 0 358 355 351 342 338 334 320 308 297 289 284 281 274 265 257 257 254 253 254 254 254 252 252 255 255 256 256 258 261 261 261 261 262 262 264 264 263 262 263 260 258
355 357 357 352 344 337 340 341 330 316 305 294 283 281 277 269 263 262 261 260 260 259 256 253 253 254 254 255 255 256 260 263 263 263 263 264 266 264 262 261 260 259 259
356 349 349 348 348 345 347 344 330 317 309 302 294 287 283 278 269 269 265 263 262 263 259 256 255 256 255 256 256 259 260 263 265 264 263 264 266 266 263 261 258 259 258
350 346 346 343 342 346 350 351 346 338 327 315 309 301 288 280 271 272 272 267 265 262 259 258 256 256 256 258 257 259 262 262 262 262 263 264 267 267 265 262 262 261 259
339 339 341 339 339 343 347 346 342 338 332 326 317 307 300 296 286 283 280 273 271 268 265 262 260 260 260 261 260 261 262 262 260 263 261 264 265 264 265 264 264 264 262
337 334 334 334 333 334 333 332 332 327 324 318 313 306 302 299 292 288 282 275 273 272 270 269 268 266 265 264 265 267 268 266 264 266 266 266 266 265 263 265 265 265 263
333 332 329 325 325 325 323 323 322 320 315 310 306 303 299 298 292 286 284 281 278 277 276 274 273 272 270 269 269 269 268 267 268 268 268 266 268 267 264 264 264 264 261
323 323 324 322 319 317 317 315 313 312 307 304 300 297 297 297 293 285 285 283 281 280 279 277 276 274 275 274 272 271 270 270 272 272 269 268 267 266 265 263 262 261 261
314 314 314 313 313 313 312 311 309 308 306 302 298 295 294 293 293 290 286 284 286 284 282 280 278 276 274 275 275 273 271 270 270 270 270 269 268 268 265 262 261 262 263
310 310 307 306 307 307 308 307 307 306 305 304 301 296 294 293 292 290 286 284 285 286 285 284 282 279 277 276 275 273 272 271 269 270 269 269 268 268 266 263 261 262 263
305 306 304 304 303 303 304 303 304 303 301 301 299 296 295 293 291 289 287 285 284 285 285 284 283 281 278 276 276 273 271 271 269 270 270 270 270 269 268 265 263 262 262
303 302 301 300 300 299 299 300 302 302 301 300 300 298 296 296 295 292 289 287 286 285 284 284 284 283 280 278 277 274 272 271 270 270 270 271 271 270 270 267 265 263 263
302 300 299 297 296 295 295 297 298 298 298 298 297 297 295 295 295 292 289 288 288 287 285 283 282 283 282 282 279 275 273 272 270 269 269 270 271 272 272 270 266 265 265
299 298 296 296 295 294 293 294 295 294 294 295 294 294 294 292 291 290 287 288 287 287 286 284 282 281 281 281 280 277 275 274 273 270 271 271 271 270 270 269 268 266 265
299 297 296 295 296 294 292 293 293 293 293 293 292 292 293 292 291 290 288 287 286 287 287 286 284 282 281 280 280 279 277 276 275 274 273 274 273 271 269 269 268 266 265
298 297 293 293 293 293 292 292 292 293 293 293 292 292 292 291 290 290 289 288 287 286 286 286 285 284 283 280 279 279 277 275 276 275 274 276 275 272 269 269 266 265 264
295 296 295 294 293 292 292 292 291 291 291 292 292 291 291 290 289 289 289 288 287 286 286 285 284 283 282 281 281 280 279 277 277 277 277 275 275 273 272 271 268 266 265
294 294 294 292 291 291 290 291 290 290 289 291 291 290 290 290 290 290 289 288 288 288 287 285 284 284 283 283 283 282 281 279 278 278 276 276 276 275 273 271 269 268 267
294 294 293 291 290 290 290 289 289 289 289 291 291 290 290 289 289 290 289 287 287 288 288 287 285 285 285 284 283 283 283 282 280 278 277 277 277 276 274 271 269 268 267
294 294 293 290 289 289 289 289 289 289 289 289 289 289 289 289 288 289 288 287 287 286 286 286 286 285 285 285 284 284 284 283 282 280 278 278 277 276 274 272 271 270 268
295 293 292 291 290 290 288 287 287 287 287 288 289 289 289 287 288 289 289 288 288 287 287 287 287 286 285 284 284 284 283 283 282 280 278 278 277 275 274 273 271 270 269
296 294 292 291 290 289 289 288 287 288 288 288 289 289 288 288 287 287 287 288 287 287 287 287 287 286 286 285 284 283 282 281 281 279 279 279 277 275 274 273 272 271 269
295 293 294 292 290 290 289 288 288 288 287 288 288 288 288 287 286 285 286 287 287 286 287 287 287 287 286 285 284 283 282 281 280 279 278 278 276 275 273 273 272 271 270
Height
5883 5882 5882 5882 5881 5881 5880 5880 5880 5879 5879 5879 5879 5879 5879 5879 5880 5880 5881 5882 5882 5883 5883 5884 5885 5885 5886 5886 5886 5887 5887 5887 5888 5888 5888 5888 5888 5889 5889 5889 5889 5890 5890
5884 5883 5882 5881 5881 5880 5880 5879 5878 5878 5878 5877 5877 5877 5877 5877 5878 5878 5879 5879 5880 5881 5882 5882 5883 5883 5884 5884 5884 5885 5885 5886 5886 5886 5886 5887 5887 5886 5887 5887 5887 5888 5888
5884 5883 5882 5882 5881 5880 5879 5878 5877 5877 5876 5875 5875 5875 5875 5876 5876 5877 5877 5877 5878 5879 5879 5880 5881 5881 5881 5882 5882 5883 5883 5883 5883 5884 5884 5884 5884 5884 5884 5885 5885 5885 5886
5883 5883 5882 5881 5880 5879 5878 5877 5876 5875 5874 5874 5874 5874 5874 5874 5874 5874 5875 5875 5876 5876 5877 5877 5878 5878 5879 5879 5879 5880 5880 5880 5881 5881 5881 5881 5882 5882 5882 5882 5882 5883 5883
5883 5882 5881 5880 5879 5878 5877 5876 5874 5874 5873 5873 5872 5872 5872 5872 5872 5872 5873 5873 5873 5873 5874 5874 5875 5875 5875 5876 5876 5877 5877 5877 5877 5877 5878 5878 5878 5879 5879 5879 5879 5880 5880
5882 5881 5880 5879 5878 5877 5876 5874 5873 5872 5872 5871 5870 5870 5870 5870 5870 5870 5870 5870 5870 5870 5870 5871 5871 5871 5872 5872 5873 5873 5873 5873 5873 5874 5874 5874 5874 5874 5875 5875 5876 5876 5877
5882 5881 5879 5878 5877 5876 5874 5873 5872 5871 5870 5869 5869 5868 5868 5867 5867 5867 5867 5867 5867 5867 5867 5867 5867 5867 5868 5868 5869 5869 5870 5870 5870 5870 5870 5870 5870 5870 5871 5871 5872 5872 5873
5881 5880 5878 5877 5876 5875 5873 5872 5871 5870 5869 5868 5867 5866 5866 5866 5865 5865 5864 5864 5864 5864 5864 5863 5863 5863 5864 5864 5864 5865 5865 5865 5865 5865 5865 5866 5866 5866 5866 5867 5867 5868 5868
5880 5879 5877 5876 5874 5873 5872 5871 5870 5868 5867 5866 5865 5865 5864 5863 5863 5862 5862 5861 5861 5860 5860 5860 5860 5860 5860 5860 5860 5860 5860 5861 5861 5861 5861 5861 5862 5862 5862 5862 5863 5863 5863
5878 5877 5876 5874 5873 5872 5871 5869 5868 5867 5865 5864 5863 5862 5862 5861 5860 5860 5859 5858 5858 5857 5857 5856 5856 5856 5856 5856 5856 5855 5855 5855 5856 5856 5856 5856 5857 5857 5857 5857 5857 5858 5858
5876 5875 5874 5872 5871 5870 5868 5867 5866 5865 5863 5862 5861 5860 5859 5858 5857 5856 5855 5855 5854 5853 5853 5852 5852 5851 5851 5851 5851 5850 5850 5850 5850 5850 5851 5851 5851 5851 5851 5851 5852 5852 5853
5874 5872 5871 5870 5868 5867 5865 5864 5863 5862 5860 5859 5857 5856 5855 5854 5853 5852 5852 5851 5850 5849 5848 5848 5847 5846 5846 5846 5845 5845 5845 5845 5845 5845 5845 5845 5845 5845 5845 5845 5846 5847 5847
5870 5869 5868 5866 5865 5864 5862 5861 5859 5858 5856 5855 5854 5852 5851 5850 5849 5848 5847 5846 5845 5845 5843 5843 5842 5841 5840 5840 5839 5839 5839 5838 5838 5839 5839 5839 5839 5839 5839 5839 5840 5840 5841
5867 5865 5864 5863 5861 5860 5859 5857 5855 5854 5852 5850 5849 5848 5846 5845 5844 5843 5842 5841 5841 5840 5838 5837 5836 5835 5834 5833 5832 5832 5832 5832 5832 5832 5832 5832 5832 5832 5832 5833 5833 5833 5834
5863 5861 5860 5858 5857 5856 5854 5853 5851 5849 5848 5846 5845 5843 5842 5840 5839 5838 5837 5836 5835 5834 5833 5831 5829 5828 5827 5826 5825 5825 5825 5825 5825 5825 5825 5825 5825 5825 5825 5826 5826 5826 5827
5858 5856 5855 5854 5852 5851 5849 5848 5846 5844 5843 5841 5840 5838 5836 5835 5833 5832 5831 5830 5828 5828 5827 5825 5823 5822 5821 5820 5819 5818 5818 5817 5817 5817 5817 5817 5817 5817 5817 5817 5818 5818 5818
5853 5851 5850 5848 5847 5845 5843 5842 5840 5838 5837 5835 5834 5832 5830 5829 5827 5825 5824 5823 5822 5821 5820 5819 5817 5816 5814 5813 5812 5811 5810 5810 5810 5809 5809 5809 5809 5809 5809 5809 5809 5809 5810
5848 5846 5844 5842 5840 5839 5837 5835 5834 5832 5831 5829 5827 5825 5824 5822 5820 5819 5817 5816 5815 5813 5812 5811 5810 5809 5807 5806 5805 5803 5803 5802 5801 5801 5801 5800 5800 5800 5800 5800 5800 5800 5801
5841 5839 5838 5836 5834 5832 5830 5828 5827 5825 5824 5822 5820 5818 5816 5815 5813 5811 5810 5808 5807 5806 5804 5804 5803 5801 5800 5798 5797 5796 5795 5794 5793 5792 5792 5791 5791 5790 5790 5790 5790 5791 5791
5835 5833 5831 5829 5827 5825 5823 5821 5820 5818 5816 5815 5813 5811 5809 5807 5805 5804 5803 5801 5799 5798 5796 5795 5794 5793 5792 5791 5789 5788 5787 5786 5784 5783 5783 5782 5781 5781 5781 5781 5781 5781 5781
5828 5826 5824 5822 5820 5818 5816 5814 5812 5810 5809 5807 5805 5804 5802 5800 5798 5796 5795 5793 5792 5790 5788 5787 5786 5785 5784 5782 5781 5779 5778 5777 5775 5774 5773 5773 5772 5771 5771 5770 5771 5771 5771
5821 5818 5816 5814 5812 5810 5808 5806 5804 5802 5801 5799 5797 5796 5794 5792 5790 5788 5787 5785 5783 5782 5781 5779 5778 5776 5775 5773 5772 5770 5769 5768 5766 5765 5764 5763 5762 5761 5760 5760 5760 5760 5760
5813 5811 5809 5806 5804 5802 5800 5798 5796 5794 5792 5791 5789 5787 5785 5783 5781 5780 5778 5776 5775 5773 5772 5771 5769 5768 5766 5764 5762 5761 5759 5758 5757 5755 5754 5753 5752 5751 5750 5750 5750 5750 5750
5806 5803 5800 5798 5795 5793 5792 5790 5788 5786 5784 5782 5781 5779 5776 5774 5773 5771 5769 5768 5766 5764 5763 5761 5760 5758 5756 5754 5753 5751 5750 5748 5747 5745 5744 5743 5742 5741 5740 5740 5739 5739 5740
5797 5794 5791 5789 5787 5785 5783 5781 5779 5777 5775 5774 5772 5770 5767 5766 5764 5762 5761 5759 5757 5755 5753 5752 5750 5748 5746 5744 5742 5741 5739 5738 5737 5735 5734 5733 5732 5731 5730 5730 5729 5729 5729
5789 5786 5783 5781 5779 5776 5774 5772 5770 5768 5766 5765 5762 5760 5759 5757 5755 5753 5751 5750 5748 5746 5744 5742 5740 5738 5736 5734 5732 5730 5729 5727 5726 5725 5724 5723 5721 5721 5721 5720 5719 5719 5719